CST,Max TemperatureF,Mean TemperatureF,Min TemperatureF,Max Dew PointF,MeanDew PointF,Min DewpointF,Max Humidity, Mean Humidity, Min Humidity, Max Sea Level PressureIn, Mean Sea Level PressureIn, Min Sea Level PressureIn, Max VisibilityMiles, Mean VisibilityMiles, Min VisibilityMiles, Max Wind SpeedMPH, Mean Wind SpeedMPH, Max Gust SpeedMPH,PrecipitationIn, CloudCover, Events, WindDirDegrees
2013-11-1,55,47,39,43,38,36,93,75,51,29.86,29.68,29.52,10,10,7,20,10,28,0.00,6,,280
2013-11-2,53,46,39,39,34,28,87,65,38,30.14,30.05,29.86,10,10,9,18,11,23,0.00,4,,299
2013-11-3,57,45,33,36,32,28,87,61,36,30.16,30.07,29.94,10,10,10,24,11,36,0.00,1,,159
2013-11-4,53,48,44,46,43,34,93,76,54,30.14,30.01,29.93,10,9,3,17,12,25,0.22,8,Rain,170
2013-11-5,59,52,46,57,49,41,100,89,76,30.16,30.00,29.78,10,7,0,18,9,26,0.35,8,Fog-Rain,119
2013-11-6,50,40,30,48,31,25,94,75,46,30.27,30.09,29.80,10,9,2,22,15,30,0.02,4,Rain,308
2013-11-7,48,39,30,32,28,23,93,74,50,30.32,30.29,30.24,10,10,9,16,9,22,0.00,0,,265
2013-11-8,59,44,28,37,29,21,75,56,36,30.29,30.03,29.81,10,10,9,25,11,40,0.00,2,,184
2013-11-9,57,49,41,37,34,28,76,57,38,30.29,30.05,29.85,10,10,10,23,13,28,0.00,0,,282
2013-11-10,50,38,26,30,27,23,86,61,43,30.43,30.31,30.16,10,10,8,13,8,13,0.00,3,,233
2013-11-11,50,34,19,37,25,12,93,66,43,30.68,30.34,30.09,10,9,0,22,13,32,0.00,7,Rain-Snow,332
2013-11-12,28,19,10,14,11,5,85,68,51,30.84,30.73,30.59,10,10,10,13,9,14,0.00,0,,291
2013-11-13,48,34,21,18,12,9,63,43,22,30.58,30.32,30.07,10,10,10,21,12,29,0.00,0,,206
2013-11-14,53,44,35,28,24,18,61,48,35,30.06,29.95,29.90,10,10,10,21,13,29,0.00,2,,216
2013-11-15,57,45,33,39,32,27,81,61,38,29.93,29.85,29.73,10,10,9,17,9,21,0.00,1,,189
2013-11-16,66,56,46,57,51,39,88,78,68,29.73,29.50,29.35,10,10,7,25,15,43,0.02,7,Rain,187
2013-11-17,59,50,41,54,44,36,94,82,67,29.96,29.56,29.26,10,10,2,26,10,38,0.38,5,Rain,294
2013-11-18,48,40,32,36,30,27,87,71,46,30.27,30.16,29.97,10,10,10,21,11,26,0.00,0,,295
2013-11-19,53,42,32,30,29,27,87,62,41,30.27,30.16,30.03,10,10,10,20,11,26,0.00,2,,144
2013-11-20,44,40,35,37,33,21,93,79,42,30.04,29.98,29.90,10,9,2,18,13,24,0.57,7,Rain,146
2013-11-21,41,34,28,37,32,25,100,92,86,30.40,30.18,30.00,10,3,0,18,9,25,0.03,7,Fog-Rain-Snow,12
2013-11-22,28,20,12,25,16,9,93,79,69,30.60,30.54,30.40,10,9,1,20,14,26,0.01,3,Rain-Snow,310
2013-11-23,19,12,5,12,4,0,79,67,53,30.80,30.73,30.57,10,10,10,20,12,28,0.00,1,,327
2013-11-24,26,14,3,12,5,-2,85,63,46,30.74,30.54,30.26,10,10,10,16,7,23,0.00,1,,203
2013-11-25,35,30,24,27,20,12,93,68,55,30.27,30.15,30.09,10,10,10,16,11,22,0.00,5,,232
2013-11-26,30,24,17,25,15,7,93,66,43,30.34,30.22,30.11,10,10,10,30,12,39,0.00,3,Snow,322
2013-11-27,26,18,10,12,8,5,79,61,43,30.38,30.27,30.08,10,10,10,15,8,18,0.00,3,,267
2013-11-28,32,26,17,16,15,12,80,63,51,30.51,30.27,30.05,10,10,10,17,9,30,0.00,0,,308
2013-11-29,41,28,15,23,18,10,86,68,45,30.52,30.41,30.24,10,10,10,15,5,17,0.00,2,Snow,144
2013-11-30,51,40,28,32,28,23,93,65,47,30.22,30.11,30.04,10,10,10,14,9,17,0.00,0,,224